Weather History for Alva, OK

Change the Weather History Date:

Wednesday, April 30, 2014

  Actual Average Record
Temperature  
Mean Temperature 49 °F -  
Max Temperature 59 °F 74 °F 92 °F (1981)
Min Temperature 39 °F 50 °F 33 °F (1950)
Degree Days  
Heating Degree Days 16    
Moisture  
Dew Point 28 °F    
Average Humidity 48    
Maximum Humidity 75    
Minimum Humidity 25    
Precipitation  
Precipitation 0.00 in - - ()
Sea Level Pressure  
Sea Level Pressure 30.12 in    
Wind  
Wind Speed 16 mph (NNW)    
Max Wind Speed 24 mph    
Max Gust Speed 34 mph    
Visibility 10 miles    
Events      
Averages and records for this station are not official NWS values.
T = Trace of Precipitation, MM = Missing Value Source: NWS Daily Summary

Daily Weather History Graph

Daily Weather History Graph

Search for Another Location

Airport:

Trip Planner

Search our weather history database for the weather conditions in past years. The results will help you decide how hot, cold, wet, or windy it might be!

Date:

Astronomy

Apr. 30, 2014 Rise Set
Actual Time 6:41 AM CDT 8:22 PM CDT
Civil Twilight 6:14 AM CDT 8:50 PM CDT
Nautical Twilight 5:40 AM CDT 9:23 PM CDT
Astronomical Twilight 5:05 AM CDT 9:59 PM CDT
Moon 7:44 AM CDT (4/30) 10:01 PM CDT (4/30)
Length of Visible Light 14h 36m
Length of Day
13h 40m
New Moon, 2% of the Moon is Illuminated
Apr 30
New Moon
May 6
First Quarter
May 14
Full
May 21
Last Quarter
May 28
New

Hourly Weather History & Observations

Time (CDT) Temp. Windchill Dew Point Humidity Pressure Visibility Wind Dir Wind Speed Gust Speed Precip Events Conditions
12:15 AM 44.6 °F 37.4 °F 33.8 °F 66% 30.06 in 10.0 mi NNW 16.1 mph 25.3 mph N/A   Overcast
12:35 AM 44.6 °F 38.4 °F 33.8 °F 66% 30.06 in 10.0 mi NNW 12.7 mph 24.2 mph N/A   Overcast
12:55 AM 44.6 °F 37.2 °F 33.8 °F 66% 30.06 in 10.0 mi NNW 17.3 mph 23.0 mph N/A   Overcast
1:15 AM 44.6 °F 37.4 °F 32.0 °F 61% 30.07 in 10.0 mi NNW 16.1 mph 21.9 mph N/A   Overcast
1:35 AM 44.6 °F 38.1 °F 32.0 °F 61% 30.08 in 10.0 mi NNW 13.8 mph 25.3 mph N/A   Overcast
1:55 AM 44.6 °F 37.2 °F 32.0 °F 61% 30.08 in 10.0 mi NNW 17.3 mph 23.0 mph N/A   Overcast
2:15 AM 44.6 °F 37.2 °F 32.0 °F 61% 30.08 in 10.0 mi NNW 17.3 mph 23.0 mph N/A   Overcast
2:35 AM 44.6 °F 36.9 °F 32.0 °F 61% 30.08 in 10.0 mi NNW 18.4 mph 26.5 mph N/A   Overcast
2:55 AM 44.6 °F 36.6 °F 32.0 °F 61% 30.08 in 10.0 mi NNW 19.6 mph 31.1 mph N/A   Overcast
3:15 AM 44.6 °F 37.4 °F 32.0 °F 61% 30.08 in 10.0 mi NNW 16.1 mph 25.3 mph N/A   Overcast
3:35 AM 42.8 °F 34.8 °F 32.0 °F 66% 30.09 in 10.0 mi NW 17.3 mph - N/A   Overcast
3:55 AM 42.8 °F 34.8 °F 32.0 °F 66% 30.09 in 10.0 mi NW 17.3 mph 23.0 mph N/A   Overcast
4:10 AM 41.0 °F 33.5 °F 32.0 °F 70% 30.09 in 10.0 mi NW 13.8 mph 19.6 mph N/A   Scattered Clouds
4:35 AM 41.0 °F 33.9 °F 32.0 °F 70% 30.11 in 10.0 mi NW 12.7 mph - N/A   Clear
4:55 AM 41.0 °F 32.5 °F 32.0 °F 70% 30.11 in 10.0 mi NW 17.3 mph 21.9 mph N/A   Clear
5:15 AM 39.2 °F 31.2 °F 32.0 °F 75% 30.11 in 10.0 mi NW 13.8 mph 18.4 mph N/A   Clear
5:35 AM 39.2 °F 30.8 °F 32.0 °F 75% 30.12 in 10.0 mi NW 15.0 mph 20.7 mph N/A   Clear
5:55 AM 39.2 °F 31.2 °F 32.0 °F 75% 30.12 in 10.0 mi NW 13.8 mph 19.6 mph N/A   Clear
6:15 AM 39.2 °F 31.6 °F 32.0 °F 75% 30.12 in 10.0 mi NW 12.7 mph - N/A   Clear
6:35 AM 39.2 °F 32.5 °F 32.0 °F 75% 30.13 in 10.0 mi NW 10.4 mph - N/A   Clear
6:55 AM 39.2 °F 32.0 °F 32.0 °F 75% 30.14 in 10.0 mi NW 11.5 mph 17.3 mph N/A   Partly Cloudy
7:15 AM 39.2 °F 30.5 °F 32.0 °F 75% 30.14 in 10.0 mi NNW 16.1 mph - N/A   Partly Cloudy
7:35 AM 41.0 °F 32.8 °F 32.0 °F 70% 30.15 in 10.0 mi NW 16.1 mph 23.0 mph N/A   Clear
7:55 AM 41.0 °F 33.9 °F 32.0 °F 70% 30.16 in 10.0 mi NNW 12.7 mph 23.0 mph N/A   Clear
8:15 AM 42.8 °F 34.0 °F 32.0 °F 66% 30.16 in 10.0 mi NW 20.7 mph 26.5 mph N/A   Clear
8:35 AM 44.6 °F 36.9 °F 32.0 °F 61% 30.16 in 10.0 mi NW 18.4 mph 29.9 mph N/A   Clear
8:55 AM 46.4 °F 38.5 °F 32.0 °F 57% 30.17 in 10.0 mi NNW 21.9 mph 28.8 mph N/A   Mostly Cloudy
9:15 AM 48.2 °F - 32.0 °F 54% 30.17 in 10.0 mi NNW 20.7 mph 26.5 mph N/A   Overcast
9:35 AM 46.4 °F 39.5 °F 32.0 °F 57% 30.17 in 10.0 mi NW 17.3 mph 26.5 mph N/A   Overcast
9:55 AM 46.4 °F 38.7 °F 30.2 °F 53% 30.17 in 10.0 mi NNW 20.7 mph 28.8 mph N/A   Overcast
10:15 AM 48.2 °F - 32.0 °F 54% 30.17 in 10.0 mi NNW 21.9 mph 26.5 mph N/A   Overcast
10:35 AM 51.8 °F - 32.0 °F 47% 30.17 in 10.0 mi NNW 21.9 mph 29.9 mph N/A   Mostly Cloudy
10:55 AM 51.8 °F - 32.0 °F 47% 30.17 in 10.0 mi NNW 21.9 mph 28.8 mph N/A   Overcast
11:15 AM 51.8 °F - 32.0 °F 47% 30.17 in 10.0 mi NNW 19.6 mph 29.9 mph N/A   Mostly Cloudy
11:35 AM 51.8 °F - 30.2 °F 44% 30.17 in 10.0 mi NNW 19.6 mph 32.2 mph N/A   Mostly Cloudy
11:55 AM 51.8 °F - 28.4 °F 41% 30.17 in 10.0 mi NW 15.0 mph 28.8 mph N/A   Overcast
12:15 PM 53.6 °F - 24.8 °F 33% 30.16 in 10.0 mi NNW 24.2 mph 34.5 mph N/A   Overcast
12:35 PM 55.4 °F - 26.6 °F 33% 30.15 in 10.0 mi NNW 23.0 mph 33.4 mph N/A   Scattered Clouds
12:55 PM 55.4 °F - 26.6 °F 33% 30.15 in 10.0 mi NNW 19.6 mph 32.2 mph N/A   Mostly Cloudy
1:15 PM 55.4 °F - 26.6 °F 33% 30.15 in 10.0 mi NNW 24.2 mph 29.9 mph N/A   Overcast
1:35 PM 57.2 °F - 26.6 °F 31% 30.14 in 10.0 mi NW 23.0 mph 33.4 mph N/A   Mostly Cloudy
1:55 PM 57.2 °F - 24.8 °F 29% 30.14 in 10.0 mi NW 20.7 mph 28.8 mph N/A   Partly Cloudy
2:15 PM 57.2 °F - 24.8 °F 29% 30.13 in 10.0 mi NNW 21.9 mph 27.6 mph N/A   Scattered Clouds
2:35 PM 57.2 °F - 24.8 °F 29% 30.13 in 10.0 mi NNW 21.9 mph 34.5 mph N/A   Scattered Clouds
2:55 PM 57.2 °F - 24.8 °F 29% 30.12 in 10.0 mi NW 20.7 mph 28.8 mph N/A   Scattered Clouds
3:15 PM 59.0 °F - 24.8 °F 27% 30.12 in 10.0 mi NNW 19.6 mph 27.6 mph N/A   Partly Cloudy
3:35 PM 59.0 °F - 24.8 °F 27% 30.11 in 10.0 mi NNW 20.7 mph 32.2 mph N/A   Partly Cloudy
3:55 PM 59.0 °F - 24.8 °F 27% 30.11 in 10.0 mi NNW 20.7 mph 29.9 mph N/A   Scattered Clouds
4:15 PM 57.2 °F - 24.8 °F 29% 30.10 in 10.0 mi NNW 20.7 mph 31.1 mph N/A   Partly Cloudy
4:35 PM 59.0 °F - 24.8 °F 27% 30.10 in 10.0 mi NW 24.2 mph 32.2 mph N/A   Partly Cloudy
4:55 PM 57.2 °F - 24.8 °F 29% 30.10 in 10.0 mi NW 18.4 mph 32.2 mph N/A   Partly Cloudy
5:15 PM 59.0 °F - 24.8 °F 27% 30.09 in 10.0 mi NW 23.0 mph 32.2 mph N/A   Mostly Cloudy
5:35 PM 59.0 °F - 24.8 °F 27% 30.10 in 10.0 mi NNW 19.6 mph 28.8 mph N/A   Scattered Clouds
5:55 PM 57.2 °F - 23.0 °F 27% 30.10 in 10.0 mi NNW 16.1 mph 28.8 mph N/A   Mostly Cloudy
6:15 PM 59.0 °F - 23.0 °F 25% 30.10 in 10.0 mi NW 18.4 mph 28.8 mph N/A   Mostly Cloudy
6:35 PM 57.2 °F - 23.0 °F 27% 30.10 in 10.0 mi NNW 11.5 mph 25.3 mph N/A   Overcast
6:55 PM 57.2 °F - 23.0 °F 27% 30.10 in 10.0 mi NNW 15.0 mph 20.7 mph N/A   Overcast
7:15 PM 55.4 °F - 23.0 °F 29% 30.10 in 10.0 mi NNW 13.8 mph 18.4 mph N/A   Overcast
7:35 PM 57.2 °F - 23.0 °F 27% 30.09 in 10.0 mi NNW 13.8 mph 20.7 mph N/A   Overcast
7:55 PM 55.4 °F - 23.0 °F 29% 30.09 in 10.0 mi NNW 15.0 mph 18.4 mph N/A   Overcast
8:15 PM 53.6 °F - 23.0 °F 30% 30.10 in 10.0 mi NNW 9.2 mph - N/A   Overcast
8:35 PM 51.8 °F - 23.0 °F 33% 30.10 in 10.0 mi NNW 9.2 mph - N/A   Mostly Cloudy
8:55 PM 51.8 °F - 23.0 °F 33% 30.11 in 10.0 mi NNW 8.1 mph - N/A   Scattered Clouds
9:15 PM 48.2 °F - 23.0 °F 37% 30.11 in 10.0 mi NNW 6.9 mph - N/A   Partly Cloudy
9:35 PM 48.2 °F - 23.0 °F 37% 30.12 in 10.0 mi NW 4.6 mph - N/A   Clear
9:55 PM 46.4 °F 42.9 °F 23.0 °F 40% 30.12 in 10.0 mi NNW 6.9 mph - N/A   Mostly Cloudy
10:15 PM 44.6 °F 40.7 °F 23.0 °F 43% 30.13 in 10.0 mi NNW 6.9 mph - N/A   Partly Cloudy
10:35 PM 44.6 °F 40.7 °F 23.0 °F 43% 30.14 in 10.0 mi NNW 6.9 mph - N/A   Clear
10:55 PM 44.6 °F 40.7 °F 23.0 °F 43% 30.14 in 10.0 mi NNW 6.9 mph - N/A   Clear
11:15 PM 42.8 °F 38.0 °F 23.0 °F 46% 30.14 in 10.0 mi NNW 8.1 mph - N/A   Clear
11:35 PM 42.8 °F 38.0 °F 23.0 °F 46% 30.14 in 10.0 mi NNW 8.1 mph - N/A   Clear
11:55 PM 41.0 °F 36.4 °F 23.0 °F 49% 30.14 in 10.0 mi NNW 6.9 mph - N/A   Clear